Weather History for Punta Gorda, FL

Change the Weather History Date:

Tuesday, November 27, 2012

  Actual Average Record
Temperature  
Mean Temperature 68 °F -  
Max Temperature 82 °F 76 °F 82 °F (2007)
Min Temperature 53 °F 53 °F 39 °F (2008)
Cooling Degree Days 2    
Growing Degree Days 18 (Base 50)    
Moisture  
Dew Point 59 °F    
Average Humidity 90    
Maximum Humidity 100    
Minimum Humidity 51    
Precipitation  
Precipitation 0.00 in - - ()
Sea Level Pressure  
Sea Level Pressure 30.17 in    
Wind  
Wind Speed 2 mph (ESE)    
Max Wind Speed 13 mph    
Max Gust Speed -    
Visibility 4 miles    
Events Fog    
Averages and records for this station are not official NWS values.
T = Trace of Precipitation, MM = Missing Value Source: NWS Daily Summary

Daily Weather History Graph

Daily Weather History Graph

Search for Another Location

Airport:

Trip Planner

Search our weather history database for the weather conditions in past years. The results will help you decide how hot, cold, wet, or windy it might be!

Date:

Astronomy

Nov. 27, 2012 Rise Set
Actual Time 6:57 AM EST 5:34 PM EST
Civil Twilight 6:32 AM EST 5:59 PM EST
Nautical Twilight 6:03 AM EST 6:27 PM EST
Astronomical Twilight 5:35 AM EST 6:55 PM EST
Moon 5:03 PM EST (11/27) 6:03 AM EST (11/27)
Length of Visible Light 11h 27m
Length of Day
10h 37m
Waxing Gibbous, 99% of the Moon is Illuminated
Nov 27
Waxing Gibbous
Nov 28
Full
Dec 6
Last Quarter
Dec 13
New
Dec 20
First Quarter

Hourly Weather History & Observations

Time (EST) Temp. Heat Index Dew Point Humidity Pressure Visibility Wind Dir Wind Speed Gust Speed Precip Events Conditions
12:53 AM 60.1 °F - 57.0 °F 90% 30.20 in 9.0 mi SE 4.6 mph - N/A   Clear
1:53 AM 60.1 °F - 57.0 °F 90% 30.19 in 8.0 mi Calm Calm - N/A   Clear
2:40 AM 57.2 °F - 55.4 °F 94% 30.19 in 1.8 mi Calm Calm - N/A   Clear
2:49 AM 57.2 °F - 55.4 °F 94% 30.19 in 3.0 mi Calm Calm - N/A   Clear
2:53 AM 57.0 °F - 55.0 °F 93% 30.19 in 4.0 mi Calm Calm - N/A   Clear
3:29 AM 57.2 °F - 55.4 °F 94% 30.18 in 1.8 mi Calm Calm - N/A   Clear
3:48 AM 55.4 °F - 55.4 °F 100% 30.17 in 0.5 mi East 3.5 mph - N/A Fog Fog
3:53 AM 55.9 °F - 55.0 °F 97% 30.17 in 1.2 mi ENE 3.5 mph - N/A   Clear
4:02 AM 57.2 °F - 55.4 °F 94% 30.17 in 2.5 mi Calm Calm - N/A   Clear
4:12 AM 57.2 °F - 55.4 °F 94% 30.17 in 4.0 mi NE 3.5 mph - N/A   Clear
4:24 AM 57.2 °F - 55.4 °F 94% 30.17 in 1.8 mi ENE 4.6 mph - N/A   Clear
4:43 AM 55.4 °F - 53.6 °F 94% 30.17 in 0.5 mi ENE 3.5 mph - N/A Fog Fog
4:53 AM 55.0 °F - 54.0 °F 96% 30.17 in 0.5 mi NE 4.6 mph - N/A Fog Fog
5:08 AM 55.4 °F - 55.4 °F 100% 30.17 in 1.8 mi Calm Calm - N/A   Clear
5:15 AM 55.4 °F - 53.6 °F 94% 30.17 in 2.0 mi East 4.6 mph - N/A   Clear
5:53 AM 55.9 °F - 55.0 °F 97% 30.17 in 2.5 mi Calm Calm - N/A   Clear
6:21 AM 57.2 °F - 55.4 °F 94% 30.17 in 3.0 mi Calm Calm - N/A   Partly Cloudy
6:29 AM 57.2 °F - 55.4 °F 94% 30.18 in 1.8 mi Calm Calm - N/A   Partly Cloudy
6:41 AM 57.2 °F - 55.4 °F 94% 30.18 in 0.8 mi Calm Calm - N/A   Clear
6:53 AM 54.0 °F - 53.1 °F 97% 30.18 in 0.2 mi Calm Calm - N/A Fog Fog
7:07 AM 53.6 °F - 53.6 °F 100% 30.18 in 0.2 mi Calm Calm - N/A Fog Fog
7:22 AM 53.6 °F - 53.6 °F 100% 30.18 in 1.8 mi East 3.5 mph - N/A   Partly Cloudy
7:44 AM 59.0 °F - 57.2 °F 94% 30.19 in 3.0 mi Calm Calm - N/A   Mostly Cloudy
7:53 AM 61.0 °F - 59.0 °F 93% 30.19 in 3.0 mi ESE 3.5 mph - N/A   Scattered Clouds
8:53 AM 64.9 °F - 61.0 °F 87% 30.20 in 9.0 mi ESE 5.8 mph - N/A   Scattered Clouds
9:53 AM 72.0 °F - 63.0 °F 73% 30.21 in 10.0 mi SE 9.2 mph - N/A   Partly Cloudy
10:53 AM 77.0 °F - 63.0 °F 62% 30.22 in 10.0 mi SSE 12.7 mph - N/A   Clear
11:53 AM 80.1 °F 81.5 °F 63.0 °F 56% 30.19 in 10.0 mi SE 10.4 mph - N/A   Clear
12:53 PM 82.0 °F 83.0 °F 62.1 °F 51% 30.16 in 10.0 mi SW 10.4 mph - N/A   Partly Cloudy
1:53 PM 79.0 °F - 62.1 °F 56% 30.13 in 10.0 mi Variable 4.6 mph - N/A   Mostly Cloudy
3:53 PM 79.0 °F - 63.0 °F 58% 30.13 in 10.0 mi WSW 10.4 mph - N/A   Clear
4:53 PM 75.9 °F - 64.9 °F 69% 30.14 in 10.0 mi SW 9.2 mph - N/A   Clear
5:53 PM 72.0 °F - 64.9 °F 78% 30.14 in 10.0 mi West 4.6 mph - N/A   Clear
6:53 PM 70.0 °F - 64.9 °F 84% 30.16 in 10.0 mi West 3.5 mph - N/A   Clear
7:53 PM 66.0 °F - 62.1 °F 87% 30.17 in 10.0 mi Calm Calm - N/A   Clear
8:53 PM 64.0 °F - 62.1 °F 93% 30.17 in 1.0 mi Calm Calm - N/A   Clear
9:00 PM 62.6 °F - 62.6 °F 100% 30.17 in 0.2 mi Calm Calm - N/A Fog Fog
9:07 PM 62.6 °F - 62.6 °F 100% 30.17 in 0.8 mi Calm Calm - N/A   Mist
9:10 PM 62.6 °F - 62.6 °F 100% 30.17 in 1.5 mi Calm Calm - N/A   Partly Cloudy
9:16 PM 62.6 °F - 60.8 °F 94% 30.16 in 0.8 mi Calm Calm - N/A   Mist
9:27 PM 62.6 °F - 60.8 °F 94% 30.16 in 1.5 mi SSE 3.5 mph - N/A   Partly Cloudy
9:34 PM 62.6 °F - 60.8 °F 94% 30.16 in 6.0 mi Calm Calm - N/A   Partly Cloudy
9:48 PM 62.6 °F - 60.8 °F 94% 30.16 in 1.5 mi Calm Calm - N/A   Clear
9:53 PM 62.1 °F - 60.1 °F 93% 30.16 in 0.8 mi Calm Calm - N/A   Clear
10:07 PM 62.6 °F - 60.8 °F 94% 30.15 in 0.8 mi Calm Calm - N/A   Mist
10:39 PM 60.8 °F - 60.8 °F 100% 30.15 in 0.2 mi Calm Calm - N/A Fog Fog
10:53 PM 60.1 °F - 59.0 °F 96% 30.16 in 0.2 mi Calm Calm - N/A Fog Fog
11:05 PM 62.6 °F - 60.8 °F 94% 30.15 in 3.0 mi Calm Calm - N/A   Mostly Cloudy
11:18 PM 60.8 °F - 59.0 °F 94% 30.15 in 2.0 mi Calm Calm - N/A   Mostly Cloudy
11:21 PM 62.6 °F - 60.8 °F 94% 30.15 in 0.8 mi Calm Calm - N/A   Mostly Cloudy
11:36 PM 62.6 °F - 60.8 °F 94% 30.16 in 2.5 mi Calm Calm - N/A   Overcast
11:43 PM 62.6 °F - 60.8 °F 94% 30.16 in 10.0 mi Calm Calm - N/A   Overcast
11:53 PM 61.0 °F - 60.1 °F 97% 30.16 in 10.0 mi Calm Calm - N/A   Overcast